Location: Geremba
(10.4250°N, 67.2394°W)
Time: 11:17:08
(UTC+00:00)

Cosmos 2263 Rocket - Pass Details

Date: 23 May 2024
Orbit: 824 x 846 km, 71.0° (Epoch: 21 June)

Event Time Altitude Azimuth Distance (km) Brightness Sun altitude
Exits shadow 08:52:16 - 181° (S) 3,379 5.1 -17.5°
Reaches altitude 10° 08:54:48 10° 175° (S) 2,455 4.4 -17.0°
Maximum altitude 09:00:07 43° 104° (ESE) 1,158 3.3 -15.8°
Drops below altitude 10° 09:05:23 10° 34° (NE) 2,442 5.5 -14.6°
Sets 09:07:55 0° 28° (NNE) 3,372 6.2 -14.0°
